[[{"header":{"parameterUnit":"m.s-1","parameterCategory":2,"la1":30.2991,"la2":30.254,"lo1":-89.0895,"lo2":-89.0444,"dy":0.0017,"dx":0.0017,"nx":28,"ny":28,"refTime":"2024-11-28T03:00:00:Z","depth":"0","parameterNumber":2,"parameterNumberName":"U-component_of_CURRENTS"},"data":[0,0,0,0,0,0,0,0,0,0,0,0,0,0,0,0,0,0,0,0,0,0,0,0,0,0,0,0,0,0,0,0,0,0,0,0,0,0,0,0,0,0,0,0,0,0,0,0,0,0,0,0,0,0,0,0,0,0,-0.2718,-0.2719,0,-0.2807,-0.2808,-0.2809,-0.2776,-0.2774,-0.2772,-0.277,-0.2804,-0.2807,-0.281,0,0,0,0,0,0,0,0,0,0,0,0,0,-0.2586,-0.2588,-0.2718,-0.2719,-0.272,-0.2807,-0.2808,-0.2809,-0.2776,-0.2774,-0.2771,-0.2769,-0.2803,-0.2807,-0.281,0,0,0,0,0,0,0,0,0,0,0,0,0,-0.2656,-0.2589,-0.2718,-0.2714,-0.2715,-0.2806,-0.2808,-0.2809,-0.2777,-0.2774,-0.2771,-0.2768,-0.2802,-0.2806,-0.281,-0.2897,0,0,-0.2823,-0.2825,0,0,0,0,0,0,0,0,-0.2652,-0.266,-0.2714,-0.2715,-0.2715,-0.2777,-0.2774,-0.2836,-0.2778,-0.2753,-0.277,-0.2767,-0.2792,-0.2797,-0.2821,-0.2898,-0.29,-0.2823,-0.2826,-0.2828,-0.2829,0,0,0,0,0,0,0,-0.2647,-0.2657,-0.2753,-0.2715,-0.2716,-0.2731,-0.2737,-0.2786,-0.2788,-0.2755,-0.2753,-0.2764,-0.2792,-0.2818,-0.2822,-0.29,-0.2823,-0.2827,-0.283,-0.2831,-0.2972,-0.2973,0,0,0,0,0,0,-0.2636,-0.2653,-0.275,-0.2756,-0.2675,-0.2735,-0.2742,-0.2761,-0.2788,-0.279,-0.2766,-0.2762,-0.2812,-0.2817,-0.2823,-0.2836,-0.2828,-0.2832,-0.2834,-0.2971,-0.2972,-0.2973,0,0,0,0,0,0,-0.2633,-0.2645,-0.2747,-0.2705,-0.2719,-0.274,-0.2762,-0.2764,-0.2768,-0.2797,-0.2797,-0.2765,-0.281,-0.2817,-0.2859,-0.284,-0.2834,-0.2837,-0.2969,-0.2971,-0.2973,-0.2921,0,0,0,0,0,0,-0.2629,-0.2643,-0.2651,-0.2705,-0.2721,-0.2774,-0.2765,-0.2768,-0.278,-0.2775,-0.2797,-0.2798,-0.2808,-0.2853,-0.2864,-0.2846,-0.2841,-0.2968,-0.297,-0.2972,-0.2921,-0.2921,-0.2921,0,0,0,0,0,-0.2625,-0.2632,-0.2651,-0.2662,-0.2732,-0.2774,-0.2783,-0.2788,-0.2783,-0.2781,-0.2811,-0.2796,-0.2874,-0.2859,-0.287,-0.2853,-0.2966,-0.2969,-0.2972,-0.2921,-0.2921,-0.2921,0,0,0,0,0,0,-0.2576,-0.2632,-0.2652,-0.2677,-0.2715,-0.2767,-0.277,-0.2789,-0.2816,-0.2809,-0.283,-0.2836,-0.2864,-0.2884,-0.2867,-0.2904,-0.2912,-0.2917,-0.2869,-0.2869,-0.2869,-0.284,-0.2844,0,0,0,0,0,-0.2576,-0.2591,-0.2653,-0.267,-0.2689,-0.2736,-0.2754,-0.2767,-0.2802,-0.2809,-0.2836,-0.2864,-0.2894,-0.2898,-0.2938,-0.297,-0.2936,-0.2964,-0.2964,-0.2963,-0.2951,-0.2866,-0.2854,-0.2982,-0.2982,-0.2982,0,0,-0.2563,-0.2595,-0.2604,-0.2661,-0.2692,-0.2726,-0.2737,-0.2762,-0.2783,-0.2813,-0.2846,-0.2876,-0.2909,-0.2936,-0.2948,-0.294,-0.2917,-0.2967,-0.2965,-0.2953,-0.2867,-0.2854,-0.2842,-0.2984,-0.2984,-0.2984,0,0,-0.2545,-0.2575,-0.2586,-0.262,-0.2668,-0.2705,-0.271,-0.2769,-0.2778,-0.2832,-0.285,-0.2863,-0.2932,-0.293,-0.2942,-0.2971,-0.2928,-0.2988,-0.2946,-0.2864,-0.2851,-0.2839,-0.2796,-0.278,-0.2973,-0.2973,-0.2972,0,-0.2528,-0.2552,-0.2593,-0.2618,-0.2636,-0.2693,-0.271,-0.2749,-0.2814,-0.2807,-0.2828,-0.2882,-0.2918,-0.2909,-0.2928,-0.2961,-0.2923,-0.2936,-0.2856,-0.2843,-0.2831,-0.279,-0.2774,-0.297,-0.2971,-0.2971,-0.2971,0,-0.2527,-0.2545,-0.255,-0.2602,-0.2632,-0.2649,-0.2713,-0.2736,-0.2763,-0.2786,-0.2791,-0.2842,-0.2846,-0.2874,-0.2921,-0.2865,-0.2871,-0.2868,-0.2839,-0.2814,-0.2775,-0.2758,-0.2967,-0.2968,-0.2969,-0.2969,0,0,-0.2486,-0.2538,-0.2539,-0.2539,-0.2617,-0.2629,-0.2671,-0.2695,-0.2678,-0.2735,-0.2696,-0.2767,-0.2762,-0.2779,-0.2813,-0.2772,-0.269,-0.2793,-0.2789,-0.272,-0.2524,-0.2474,-0.2452,-0.2656,-0.2653,-0.265,-0.2534,0,-0.2466,-0.2479,-0.2524,-0.253,-0.2535,-0.2591,-0.2612,-0.2639,-0.2662,-0.2649,-0.2664,-0.2661,-0.2732,-0.2723,-0.269,-0.2705,-0.2642,-0.2723,-0.2586,-0.2582,-0.2513,-0.2429,-0.2345,-0.2227,-0.2517,-0.2514,-0.2512,0,-0.2446,-0.245,-0.2451,-0.2454,-0.246,-0.2481,-0.2477,-0.2505,-0.2514,-0.252,-0.2503,-0.2527,-0.2513,-0.2561,-0.2501,-0.2548,-0.2526,-0.2527,-0.2521,-0.2475,-0.25,-0.23,-0.2186,-0.2154,-0.2487,-0.2489,-0.2491,0,-0.236,-0.2387,-0.2369,-0.2381,-0.2417,-0.2408,-0.2425,-0.2447,-0.2443,-0.2426,-0.2407,-0.2383,-0.2373,-0.2333,-0.2383,-0.2415,-0.2306,-0.2331,-0.2255,-0.2253,-0.2154,-0.2148,-0.196,-0.2226,-0.2226,-0.2226,-0.2227,0,-0.2305,-0.2284,-0.232,-0.2308,-0.2264,-0.2322,-0.2279,-0.2295,-0.2303,-0.227,-0.232,-0.2288,-0.2312,-0.2285,-0.2305,-0.2234,-0.222,-0.2217,-0.2194,-0.2142,-0.2136,-0.2086,-0.2109,-0.2222,-0.2223,-0.2224,-0.2225,0,-0.2208,-0.2242,-0.2209,-0.2225,-0.2224,-0.2189,-0.2202,-0.2171,-0.2201,-0.2161,-0.2153,-0.2188,-0.2148,-0.2174,-0.2123,-0.2121,-0.2008,-0.2042,-0.2009,-0.1983,-0.1866,-0.1892,-0.167,-0.1608,-0.1898,-0.1896,-0.1894,0,-0.2153,-0.2132,-0.213,-0.2107,-0.2111,-0.2082,-0.2065,-0.2103,-0.2087,-0.2099,-0.2067,-0.2045,-0.2015,-0.1947,-0.1929,-0.1879,-0.189,-0.1771,-0.1802,-0.1806,-0.1818,-0.1831,-0.1798,-0.1668,-0.1664,-0.1661,-0.1659,0,-0.2035,-0.2044,-0.202,-0.1979,-0.1954,-0.1925,-0.1912,-0.1893,-0.1933,-0.1922,-0.1899,-0.188,-0.1833,-0.1749,-0.1708,-0.1684,-0.1691,-0.1705,-0.1685,-0.1584,-0.1604,-0.1553,-0.1847,-0.1632,-0.1635,-0.1637,-0.1638,-0.1639,-0.1937,-0.1891,-0.1871,-0.1823,-0.1802,-0.1765,-0.1706,-0.1721,-0.1689,-0.1662,-0.1713,-0.167,-0.1623,-0.1548,-0.1512,-0.1419,-0.1474,-0.1382,-0.1405,-0.1413,-0.1355,-0.161,-0.1389,-0.1391,-0.1392,-0.1393,-0.1393,0,-0.1797,-0.1765,-0.1716,-0.1656,-0.1597,-0.1631,-0.1594,-0.154,-0.148,-0.1502,-0.1474,-0.145,-0.1346,-0.1327,-0.125,-0.1163,-0.1134,-0.1122,-0.112,-0.1094,-0.1275,-0.127,-0.1041,-0.1041,-0.1041,-0.1041,-0.1041,-0.1041,-0.1718,-0.1629,-0.1609,-0.1471,-0.1436,-0.1329,-0.1291,-0.1248,-0.1244,-0.1221,-0.1237,-0.129,-0.1359,-0.1241,-0.1103,-0.1031,-0.0968,-0.0905,-0.0924,-0.1082,-0.1109,-0.1135,-0.1132,-0.0878,-0.0878,-0.069,-0.0689,-0.0688]},{"header":{"parameterUnit":"m.s-1","parameterCategory":2,"la1":30.2991,"la2":30.254,"lo1":-89.0895,"lo2":-89.0444,"dy":0.0017,"dx":0.0017,"nx":28,"ny":28,"refTime":"2024-11-28T03:00:00:Z","depth":"0","parameterNumber":3,"parameterNumberName":"V-component_of_CURRENTS"},"data":[0,0,0,0,0,0,0,0,0,0,0,0,0,0,0,0,0,0,0,0,0,0,0,0,0,0,0,0,0,0,0,0,0,0,0,0,0,0,0,0,0,0,0,0,0,0,0,0,0,0,0,0,0,0,0,0,0,0,-0.064,-0.064,0,-0.0621,-0.0621,-0.0621,-0.0585,-0.0584,-0.0584,-0.0583,-0.045,-0.0447,-0.0444,0,0,0,0,0,0,0,0,0,0,0,0,0,-0.0627,-0.0628,-0.064,-0.064,-0.064,-0.0622,-0.0621,-0.0621,-0.0585,-0.0584,-0.0584,-0.0583,-0.0451,-0.0447,-0.0444,0,0,0,0,0,0,0,0,0,0,0,0,0,-0.0621,-0.0628,-0.064,-0.0621,-0.062,-0.0622,-0.0621,-0.062,-0.0585,-0.0584,-0.0584,-0.0583,-0.0452,-0.0448,-0.0443,-0.043,0,0,-0.0429,-0.0427,0,0,0,0,0,0,0,0,-0.0622,-0.0622,-0.0624,-0.0623,-0.0621,-0.0606,-0.0568,-0.0552,-0.0585,-0.0596,-0.0583,-0.0582,-0.0493,-0.0485,-0.0482,-0.0424,-0.0418,-0.0429,-0.0426,-0.0424,-0.0423,0,0,0,0,0,0,0,-0.0622,-0.0622,-0.0631,-0.0624,-0.0622,-0.0608,-0.0606,-0.0565,-0.0546,-0.0595,-0.0593,-0.0594,-0.0491,-0.0487,-0.0479,-0.0416,-0.0429,-0.0425,-0.0422,-0.042,-0.0346,-0.0346,0,0,0,0,0,0,-0.063,-0.0623,-0.0631,-0.063,-0.0622,-0.0609,-0.0607,-0.061,-0.0549,-0.054,-0.0595,-0.0593,-0.0495,-0.0484,-0.0474,-0.0455,-0.0424,-0.042,-0.0417,-0.0345,-0.0346,-0.0347,0,0,0,0,0,0,-0.063,-0.0631,-0.0632,-0.0627,-0.0627,-0.0611,-0.0614,-0.061,-0.0602,-0.055,-0.0539,-0.0591,-0.0494,-0.048,-0.0451,-0.0449,-0.0417,-0.0413,-0.0344,-0.0345,-0.0346,-0.0417,0,0,0,0,0,0,-0.063,-0.0632,-0.0638,-0.0628,-0.0627,-0.0641,-0.0615,-0.0611,-0.0606,-0.0602,-0.0543,-0.053,-0.0493,-0.0458,-0.0446,-0.0442,-0.041,-0.0343,-0.0344,-0.0346,-0.0413,-0.042,-0.0426,0,0,0,0,0,-0.063,-0.0643,-0.0638,-0.0639,-0.0636,-0.0642,-0.0641,-0.0625,-0.0606,-0.0612,-0.0577,-0.0532,-0.0459,-0.0456,-0.0441,-0.0436,-0.0342,-0.0344,-0.0346,-0.0411,-0.0419,-0.0426,0,0,0,0,0,0,-0.0647,-0.0641,-0.0635,-0.0647,-0.0649,-0.0637,-0.0642,-0.0628,-0.0606,-0.0596,-0.0542,-0.0528,-0.0501,-0.0464,-0.0462,-0.0421,-0.0392,-0.0391,-0.0446,-0.0454,-0.046,-0.0461,-0.0406,0,0,0,0,0,-0.0654,-0.0659,-0.0655,-0.0668,-0.0668,-0.0654,-0.0653,-0.0643,-0.0624,-0.0614,-0.0577,-0.0535,-0.0499,-0.0474,-0.0441,-0.0416,-0.0385,-0.0404,-0.041,-0.0416,-0.0409,-0.038,-0.0383,-0.0353,-0.0352,-0.0352,0,0,-0.0666,-0.0664,-0.0668,-0.0671,-0.0668,-0.068,-0.0651,-0.0655,-0.0659,-0.06,-0.0592,-0.0555,-0.0499,-0.0479,-0.0462,-0.0445,-0.0413,-0.0418,-0.0423,-0.0413,-0.0382,-0.0385,-0.0388,-0.0354,-0.0353,-0.0353,0,0,-0.0699,-0.069,-0.0706,-0.0708,-0.0708,-0.0701,-0.0703,-0.0694,-0.0681,-0.0673,-0.0631,-0.0602,-0.0549,-0.0516,-0.0488,-0.0507,-0.045,-0.0491,-0.0515,-0.0489,-0.0491,-0.0492,-0.0473,-0.0472,-0.049,-0.049,-0.049,0,-0.0716,-0.0732,-0.0715,-0.0732,-0.0737,-0.0713,-0.0733,-0.0721,-0.0705,-0.0688,-0.0678,-0.0607,-0.0568,-0.0526,-0.0538,-0.0519,-0.0496,-0.0491,-0.0496,-0.0497,-0.0497,-0.0477,-0.0475,-0.0494,-0.0494,-0.0493,-0.0493,0,-0.0761,-0.0772,-0.0783,-0.0794,-0.0797,-0.081,-0.0794,-0.0787,-0.0766,-0.0746,-0.0708,-0.0665,-0.0616,-0.0604,-0.0574,-0.055,-0.0532,-0.0512,-0.0478,-0.0504,-0.0482,-0.0479,-0.0499,-0.0498,-0.0497,-0.0496,0,0,-0.0804,-0.0813,-0.0816,-0.0824,-0.0827,-0.0832,-0.0834,-0.0821,-0.0804,-0.0783,-0.076,-0.0712,-0.0677,-0.0644,-0.0602,-0.0579,-0.0572,-0.0548,-0.0545,-0.053,-0.0515,-0.0491,-0.0485,-0.055,-0.055,-0.055,-0.0505,0,-0.0845,-0.0884,-0.0876,-0.0907,-0.0923,-0.0896,-0.0895,-0.0874,-0.0844,-0.0818,-0.076,-0.0725,-0.0693,-0.0668,-0.0641,-0.0583,-0.0563,-0.0586,-0.049,-0.0487,-0.0462,-0.048,-0.0547,-0.0511,-0.0501,-0.0501,-0.05,0,-0.0894,-0.0908,-0.0949,-0.0946,-0.0949,-0.0962,-0.0938,-0.0934,-0.0883,-0.0854,-0.0807,-0.0758,-0.0711,-0.0688,-0.0606,-0.0619,-0.0574,-0.0536,-0.0533,-0.0478,-0.0456,-0.0479,-0.0505,-0.0529,-0.0495,-0.0495,-0.0496,0,-0.0929,-0.0954,-0.0983,-0.0989,-0.0989,-0.0989,-0.0984,-0.0945,-0.0928,-0.0876,-0.0856,-0.0785,-0.0753,-0.0686,-0.0604,-0.0603,-0.0518,-0.0506,-0.0442,-0.0441,-0.0461,-0.0461,-0.0496,-0.0454,-0.0455,-0.0455,-0.0455,0,-0.0976,-0.0994,-0.1,-0.1016,-0.1033,-0.102,-0.1021,-0.0996,-0.096,-0.0939,-0.0877,-0.0847,-0.0751,-0.0686,-0.0613,-0.0516,-0.0524,-0.0445,-0.0424,-0.0489,-0.0492,-0.0482,-0.0443,-0.0453,-0.0453,-0.0454,-0.0454,0,-0.1011,-0.1021,-0.1048,-0.1053,-0.1054,-0.1065,-0.1055,-0.1048,-0.101,-0.0985,-0.0971,-0.0894,-0.0808,-0.0708,-0.0599,-0.053,-0.0416,-0.0404,-0.0488,-0.0477,-0.0434,-0.0394,-0.0272,-0.0229,-0.0327,-0.0326,-0.0326,0,-0.1031,-0.1052,-0.1075,-0.109,-0.1094,-0.1104,-0.1108,-0.1079,-0.1069,-0.1011,-0.1002,-0.0918,-0.0854,-0.0687,-0.0567,-0.0436,-0.0387,-0.0403,-0.0408,-0.044,-0.0381,-0.0312,-0.0281,-0.0474,-0.0474,-0.0475,-0.0475,0,-0.1059,-0.107,-0.1091,-0.1121,-0.1138,-0.1153,-0.1154,-0.1153,-0.1114,-0.1091,-0.1044,-0.0992,-0.0841,-0.0742,-0.0568,-0.0479,-0.039,-0.0405,-0.0424,-0.0479,-0.0419,-0.0368,-0.0498,-0.0479,-0.0478,-0.0478,-0.0478,-0.0478,-0.1067,-0.109,-0.1117,-0.1144,-0.1168,-0.1187,-0.1193,-0.1191,-0.118,-0.1142,-0.1095,-0.1052,-0.0928,-0.0699,-0.0599,-0.0493,-0.0377,-0.0465,-0.041,-0.0335,-0.0304,-0.0434,-0.0394,-0.0393,-0.0393,-0.0392,-0.0391,0,-0.1067,-0.1095,-0.1129,-0.1164,-0.1194,-0.1198,-0.1208,-0.1208,-0.1201,-0.1201,-0.1161,-0.1117,-0.0989,-0.0856,-0.0678,-0.0559,-0.0484,-0.0489,-0.046,-0.042,-0.0561,-0.0586,-0.0603,-0.0603,-0.0603,-0.0603,-0.0603,-0.0603,-0.1064,-0.1099,-0.1122,-0.1171,-0.1195,-0.1218,-0.1223,-0.1224,-0.1231,-0.1248,-0.1268,-0.1271,-0.1137,-0.0838,-0.0682,-0.0615,-0.0506,-0.0444,-0.0341,-0.0535,-0.0532,-0.0528,-0.0549,-0.0558,-0.0558,-0.026,-0.0258,-0.0256]}],[{"header":{"parameterUnit":"m.s-1","parameterCategory":2,"la1":30.2991,"la2":30.254,"lo1":-89.0895,"lo2":-89.0444,"dy":0.0017,"dx":0.0017,"nx":28,"ny":28,"refTime":"2024-11-28T03:00:00:Z","depth":"2","parameterNumber":2,"parameterNumberName":"U-component_of_CURRENTS"},"data":[0,0,0,0,0,0,0,0,0,0,0,0,0,0,0,0,0,0,0,0,0,0,0,0,0,0,0,0,0,0,0,0,0,0,0,0,0,0,0,0,0,0,0,0,0,0,0,0,0,0,0,0,0,0,0,0,0,0,-0.2663,-0.2664,0,-0.2753,-0.2754,-0.2755,-0.273,-0.2729,-0.2727,-0.2725,-0.2766,-0.2769,-0.2772,0,0,0,0,0,0,0,0,0,0,0,0,0,-0.2536,-0.2538,-0.2663,-0.2664,-0.2665,-0.2753,-0.2754,-0.2756,-0.2731,-0.2729,-0.2726,-0.2724,-0.2765,-0.2769,-0.2772,0,0,0,0,0,0,0,0,0,0,0,0,0,-0.2605,-0.2539,-0.2663,-0.2663,-0.2664,-0.2753,-0.2755,-0.2756,-0.2731,-0.2728,-0.2726,-0.2723,-0.2764,-0.2768,-0.2773,-0.2854,0,0,-0.2785,-0.2787,0,0,0,0,0,0,0,0,-0.2601,-0.261,-0.2662,-0.2663,-0.2665,-0.2728,-0.2725,-0.2786,-0.2732,-0.2706,-0.2725,-0.2722,-0.2751,-0.2756,-0.278,-0.2856,-0.2858,-0.2786,-0.2788,-0.279,-0.2791,0,0,0,0,0,0,0,-0.2596,-0.2606,-0.2699,-0.2664,-0.2665,-0.2682,-0.2688,-0.2737,-0.2742,-0.2708,-0.2706,-0.2717,-0.2751,-0.2776,-0.2781,-0.2859,-0.2786,-0.2789,-0.2792,-0.2794,-0.2938,-0.294,0,0,0,0,0,0,-0.2585,-0.2602,-0.2696,-0.2702,-0.2625,-0.2686,-0.2693,-0.271,-0.2743,-0.2745,-0.2719,-0.2716,-0.277,-0.2776,-0.2782,-0.2799,-0.279,-0.2794,-0.2797,-0.2937,-0.2939,-0.294,0,0,0,0,0,0,-0.2582,-0.2593,-0.2693,-0.2653,-0.2666,-0.2691,-0.2711,-0.2714,-0.272,-0.2752,-0.2753,-0.2719,-0.2768,-0.2776,-0.2824,-0.2803,-0.2796,-0.28,-0.2935,-0.2937,-0.2939,-0.2885,0,0,0,0,0,0,-0.2578,-0.2592,-0.2599,-0.2653,-0.2668,-0.272,-0.2714,-0.2717,-0.2732,-0.2727,-0.2753,-0.2755,-0.2767,-0.2817,-0.2828,-0.2808,-0.2803,-0.2934,-0.2936,-0.2939,-0.2885,-0.2885,-0.2884,0,0,0,0,0,-0.2574,-0.2581,-0.2599,-0.261,-0.2678,-0.2721,-0.273,-0.2738,-0.2734,-0.2734,-0.2768,-0.2753,-0.2839,-0.2823,-0.2835,-0.2816,-0.2933,-0.2936,-0.2938,-0.2885,-0.2885,-0.2884,0,0,0,0,0,0,-0.2528,-0.2581,-0.2601,-0.2625,-0.2663,-0.2715,-0.272,-0.2738,-0.277,-0.2765,-0.2789,-0.2795,-0.2826,-0.2848,-0.283,-0.2869,-0.2877,-0.2882,-0.2832,-0.2832,-0.2832,-0.2804,-0.2807,0,0,0,0,0,-0.2528,-0.2542,-0.2602,-0.2619,-0.2637,-0.2684,-0.2703,-0.2717,-0.2754,-0.2764,-0.2793,-0.2825,-0.2857,-0.2863,-0.2904,-0.2937,-0.2904,-0.2931,-0.293,-0.2929,-0.2918,-0.2834,-0.2823,-0.295,-0.295,-0.295,0,0,-0.2516,-0.2546,-0.2555,-0.261,-0.2641,-0.2674,-0.2686,-0.2712,-0.2735,-0.2768,-0.2805,-0.2836,-0.2872,-0.2901,-0.2914,-0.2907,-0.2884,-0.2933,-0.2931,-0.2921,-0.2836,-0.2822,-0.2811,-0.2952,-0.2951,-0.2951,0,0,-0.2499,-0.2528,-0.2538,-0.2571,-0.2619,-0.2655,-0.266,-0.2721,-0.2732,-0.2789,-0.2809,-0.2826,-0.2896,-0.2896,-0.2909,-0.2939,-0.2895,-0.2955,-0.2914,-0.2832,-0.2819,-0.2807,-0.2766,-0.275,-0.294,-0.2939,-0.2939,0,-0.2484,-0.2506,-0.2546,-0.257,-0.2587,-0.2644,-0.266,-0.2701,-0.2769,-0.2765,-0.2788,-0.2845,-0.2884,-0.2875,-0.2897,-0.2929,-0.2891,-0.2903,-0.2823,-0.2811,-0.28,-0.276,-0.2744,-0.2937,-0.2937,-0.2938,-0.2938,0,-0.2483,-0.25,-0.2506,-0.2555,-0.2584,-0.2602,-0.2666,-0.2691,-0.2721,-0.2745,-0.2752,-0.2807,-0.2813,-0.2841,-0.2889,-0.2834,-0.2838,-0.2835,-0.2806,-0.2782,-0.2745,-0.2728,-0.2934,-0.2935,-0.2935,-0.2936,0,0,-0.2444,-0.2494,-0.2495,-0.2495,-0.257,-0.2582,-0.2626,-0.2651,-0.2635,-0.2695,-0.2658,-0.2733,-0.2728,-0.2746,-0.2781,-0.2741,-0.266,-0.2761,-0.2757,-0.2688,-0.2494,-0.2445,-0.2424,-0.2624,-0.2621,-0.2618,-0.2505,0,-0.2425,-0.2437,-0.248,-0.2486,-0.2491,-0.2545,-0.2568,-0.2596,-0.2622,-0.2611,-0.2628,-0.2628,-0.2699,-0.2691,-0.2658,-0.2675,-0.2613,-0.2693,-0.2557,-0.2554,-0.2484,-0.2401,-0.2222,-0.21,-0.2489,-0.2486,-0.2484,0,-0.2405,-0.2409,-0.241,-0.2412,-0.2418,-0.2439,-0.2437,-0.2466,-0.2476,-0.2484,-0.2468,-0.2493,-0.2482,-0.253,-0.2473,-0.2516,-0.2497,-0.2499,-0.2493,-0.2448,-0.2472,-0.2188,-0.2056,-0.2457,-0.2459,-0.2461,-0.2463,0,-0.2322,-0.2347,-0.233,-0.2342,-0.2377,-0.2369,-0.2386,-0.2408,-0.2406,-0.2392,-0.2375,-0.2351,-0.2344,-0.2304,-0.2357,-0.2387,-0.2282,-0.2306,-0.223,-0.2229,-0.2052,-0.2039,-0.2202,-0.2202,-0.2203,-0.2203,-0.2203,0,-0.2267,-0.2247,-0.2283,-0.2272,-0.2229,-0.2286,-0.2245,-0.2261,-0.227,-0.2239,-0.2289,-0.2259,-0.2284,-0.2259,-0.228,-0.221,-0.2197,-0.2194,-0.2171,-0.2036,-0.2024,-0.2322,-0.2337,-0.2199,-0.22,-0.2201,-0.2201,0,-0.2173,-0.2207,-0.2175,-0.2191,-0.2191,-0.2157,-0.2171,-0.2141,-0.2172,-0.2134,-0.2127,-0.2163,-0.2125,-0.2151,-0.2103,-0.21,-0.205,-0.2023,-0.1896,-0.1859,-0.2072,-0.2087,-0.1887,-0.1884,-0.1881,-0.1879,-0.1877,0,-0.2119,-0.2099,-0.2098,-0.2076,-0.208,-0.2054,-0.2037,-0.2075,-0.206,-0.2074,-0.2042,-0.2024,-0.1991,-0.1926,-0.1885,-0.183,-0.1947,-0.1657,-0.1673,-0.2028,-0.2027,-0.2047,-0.2065,-0.1429,-0.1424,-0.142,-0.1416,0,-0.2003,-0.2013,-0.199,-0.195,-0.1926,-0.1898,-0.1886,-0.1868,-0.1909,-0.1895,-0.1874,-0.1852,-0.1788,-0.1648,-0.1599,-0.1564,-0.1654,-0.1564,-0.189,-0.1559,-0.1592,-0.1595,-0.1627,-0.1376,-0.138,-0.1383,-0.1385,-0.1387,-0.1908,-0.1863,-0.1844,-0.1797,-0.1778,-0.174,-0.1683,-0.1685,-0.165,-0.1598,-0.166,-0.1568,-0.1545,-0.1362,-0.1285,-0.1237,-0.1381,-0.1332,-0.1346,-0.1365,-0.1354,-0.1382,-0.1127,-0.1129,-0.1131,-0.1133,-0.1135,0,-0.1763,-0.1739,-0.1691,-0.1632,-0.1567,-0.1609,-0.1572,-0.1501,-0.1421,-0.1398,-0.1344,-0.1179,-0.1047,-0.1049,-0.0895,-0.0879,-0.0881,-0.0851,-0.0846,-0.0885,-0.092,-0.0888,-0.0536,-0.0534,-0.0533,-0.0531,0,0,-0.1684,-0.1593,-0.1573,-0.1434,-0.1407,-0.1291,-0.1254,-0.118,-0.1135,-0.1042,-0.0978,-0.0974,-0.1012,-0.0767,-0.071,-0.0599,-0.0743,-0.0562,-0.104,-0.1072,-0.1106,-0.119,-0.1183,0,0,0,0,0]},{"header":{"parameterUnit":"m.s-1","parameterCategory":2,"la1":30.2991,"la2":30.254,"lo1":-89.0895,"lo2":-89.0444,"dy":0.0017,"dx":0.0017,"nx":28,"ny":28,"refTime":"2024-11-28T03:00:00:Z","depth":"2","parameterNumber":3,"parameterNumberName":"V-component_of_CURRENTS"},"data":[0,0,0,0,0,0,0,0,0,0,0,0,0,0,0,0,0,0,0,0,0,0,0,0,0,0,0,0,0,0,0,0,0,0,0,0,0,0,0,0,0,0,0,0,0,0,0,0,0,0,0,0,0,0,0,0,0,0,-0.0566,-0.0566,0,-0.0548,-0.0548,-0.0547,-0.0515,-0.0514,-0.0514,-0.0514,-0.0384,-0.0382,-0.0379,0,0,0,0,0,0,0,0,0,0,0,0,0,-0.0557,-0.0557,-0.0566,-0.0566,-0.0566,-0.0548,-0.0548,-0.0547,-0.0515,-0.0514,-0.0514,-0.0513,-0.0385,-0.0382,-0.0378,0,0,0,0,0,0,0,0,0,0,0,0,0,-0.0551,-0.0557,-0.0566,-0.0549,-0.0547,-0.0548,-0.0548,-0.0547,-0.0515,-0.0514,-0.0514,-0.0513,-0.0387,-0.0382,-0.0378,-0.0364,0,0,-0.0364,-0.0362,0,0,0,0,0,0,0,0,-0.0551,-0.0551,-0.0552,-0.055,-0.0548,-0.0534,-0.0497,-0.0481,-0.0515,-0.0526,-0.0514,-0.0513,-0.0426,-0.0418,-0.0416,-0.0358,-0.0352,-0.0364,-0.0361,-0.0359,-0.0358,0,0,0,0,0,0,0,-0.0552,-0.0551,-0.0557,-0.0552,-0.055,-0.0537,-0.0535,-0.0494,-0.0476,-0.0525,-0.0523,-0.0524,-0.0424,-0.042,-0.0412,-0.035,-0.0364,-0.036,-0.0357,-0.0355,-0.0285,-0.0286,0,0,0,0,0,0,-0.0559,-0.0552,-0.0558,-0.0557,-0.055,-0.0538,-0.0536,-0.0538,-0.0479,-0.0471,-0.0524,-0.0522,-0.0428,-0.0417,-0.0407,-0.0391,-0.0359,-0.0355,-0.0352,-0.0284,-0.0285,-0.0286,0,0,0,0,0,0,-0.0559,-0.056,-0.0559,-0.0555,-0.0554,-0.0539,-0.0542,-0.0538,-0.0532,-0.0481,-0.047,-0.0521,-0.0427,-0.0413,-0.0387,-0.0385,-0.0353,-0.0349,-0.0283,-0.0285,-0.0286,-0.0355,0,0,0,0,0,0,-0.0559,-0.056,-0.0566,-0.0556,-0.0555,-0.0568,-0.0543,-0.0539,-0.0534,-0.0531,-0.0474,-0.0462,-0.0426,-0.0394,-0.0382,-0.0378,-0.0345,-0.0282,-0.0284,-0.0286,-0.0352,-0.0359,-0.0364,0,0,0,0,0,-0.0558,-0.0572,-0.0566,-0.0567,-0.0563,-0.0569,-0.0568,-0.0553,-0.0535,-0.0542,-0.0509,-0.0464,-0.0395,-0.0391,-0.0377,-0.0372,-0.0282,-0.0284,-0.0285,-0.0349,-0.0357,-0.0364,0,0,0,0,0,0,-0.0578,-0.057,-0.0563,-0.0576,-0.0576,-0.0564,-0.057,-0.0556,-0.0536,-0.0528,-0.0475,-0.0461,-0.0436,-0.04,-0.0397,-0.0359,-0.033,-0.0329,-0.0383,-0.039,-0.0397,-0.0398,-0.0341,0,0,0,0,0,-0.0585,-0.059,-0.0584,-0.0596,-0.0596,-0.0582,-0.0581,-0.0572,-0.0554,-0.0545,-0.051,-0.0469,-0.0435,-0.0411,-0.0379,-0.0355,-0.0324,-0.0344,-0.035,-0.0356,-0.0349,-0.0319,-0.0322,-0.0293,-0.0293,-0.0293,0,0,-0.0598,-0.0594,-0.0598,-0.06,-0.0596,-0.0609,-0.058,-0.0584,-0.0588,-0.0531,-0.0525,-0.0489,-0.0436,-0.0417,-0.0401,-0.0384,-0.0351,-0.0358,-0.0363,-0.0353,-0.0321,-0.0324,-0.0326,-0.0294,-0.0294,-0.0293,0,0,-0.0631,-0.0622,-0.0638,-0.0639,-0.0638,-0.063,-0.0633,-0.0624,-0.0612,-0.0606,-0.0565,-0.0537,-0.0487,-0.0455,-0.0427,-0.0448,-0.0389,-0.0432,-0.0456,-0.0428,-0.043,-0.0431,-0.041,-0.0408,-0.0431,-0.0432,-0.0432,0,-0.0648,-0.0664,-0.0646,-0.0663,-0.0667,-0.0643,-0.0663,-0.0652,-0.0637,-0.0621,-0.0613,-0.0543,-0.0506,-0.0465,-0.0478,-0.046,-0.0435,-0.0432,-0.0436,-0.0436,-0.0436,-0.0413,-0.0411,-0.0435,-0.0435,-0.0434,-0.0434,0,-0.0694,-0.0704,-0.0715,-0.0725,-0.0728,-0.0741,-0.0725,-0.0719,-0.0699,-0.068,-0.0643,-0.0602,-0.0555,-0.0544,-0.0514,-0.049,-0.047,-0.0451,-0.0416,-0.0443,-0.0418,-0.0414,-0.044,-0.0439,-0.0438,-0.0437,0,0,-0.0737,-0.0746,-0.0749,-0.0756,-0.0758,-0.0763,-0.0766,-0.0753,-0.0737,-0.0717,-0.0695,-0.065,-0.0614,-0.0583,-0.0541,-0.0517,-0.0508,-0.0487,-0.0484,-0.0465,-0.0447,-0.0427,-0.0421,-0.0487,-0.0486,-0.0486,-0.0434,0,-0.0778,-0.0816,-0.0808,-0.0838,-0.0854,-0.0827,-0.0827,-0.0806,-0.0778,-0.0752,-0.0695,-0.0661,-0.0631,-0.0606,-0.0579,-0.052,-0.0499,-0.0524,-0.0422,-0.042,-0.0398,-0.0416,-0.0341,-0.0288,-0.043,-0.043,-0.0429,0,-0.0827,-0.084,-0.0881,-0.0878,-0.088,-0.0893,-0.087,-0.0867,-0.0816,-0.0788,-0.0741,-0.0692,-0.0645,-0.0624,-0.0539,-0.0554,-0.0507,-0.0468,-0.0464,-0.0414,-0.0392,-0.0281,-0.0275,-0.0422,-0.0423,-0.0423,-0.0424,0,-0.0863,-0.0887,-0.0916,-0.0921,-0.0921,-0.0921,-0.0916,-0.0877,-0.0862,-0.081,-0.0789,-0.0717,-0.0685,-0.0616,-0.0535,-0.0534,-0.0445,-0.0432,-0.0371,-0.037,-0.0269,-0.0259,-0.0379,-0.0379,-0.0379,-0.0379,-0.0379,0,-0.0909,-0.0927,-0.0933,-0.095,-0.0966,-0.0953,-0.0954,-0.0929,-0.0893,-0.0873,-0.081,-0.0779,-0.0682,-0.0615,-0.0542,-0.0444,-0.0448,-0.0373,-0.0352,-0.0294,-0.0287,-0.0369,-0.0368,-0.0377,-0.0377,-0.0378,-0.0378,0,-0.0944,-0.0954,-0.0982,-0.0987,-0.0988,-0.1,-0.099,-0.0982,-0.0944,-0.0919,-0.0904,-0.0825,-0.0739,-0.0637,-0.0525,-0.0456,-0.0363,-0.0328,-0.0271,-0.0245,-0.0306,-0.031,-0.0254,-0.0253,-0.0252,-0.0251,-0.0251,0,-0.0965,-0.0986,-0.1009,-0.1024,-0.1029,-0.104,-0.1043,-0.1014,-0.1004,-0.0944,-0.0934,-0.0849,-0.078,-0.061,-0.0451,-0.0308,-0.0342,-0.0182,-0.017,-0.0307,-0.0292,-0.0298,-0.0303,-0.0066,-0.0064,-0.0063,-0.0061,0,-0.0992,-0.1004,-0.1026,-0.1057,-0.1074,-0.1088,-0.109,-0.1088,-0.1048,-0.1019,-0.0971,-0.0914,-0.0727,-0.0529,-0.0339,-0.0245,-0.0198,-0.0144,-0.028,-0.0121,-0.0128,-0.0115,-0.0126,-0.0045,-0.0047,-0.0048,-0.0049,-0.005,-0.1002,-0.1025,-0.1052,-0.108,-0.1104,-0.1122,-0.1128,-0.1102,-0.1083,-0.0987,-0.097,-0.081,-0.0664,-0.0328,-0.0193,-0.004,-0.0094,-0.0034,-0.004,-0.0047,-0.0046,-0.0052,0.0045,0.0044,0.0043,0.0042,0.0042,0,-0.0992,-0.1031,-0.1065,-0.11,-0.1117,-0.1135,-0.1144,-0.1101,-0.1056,-0.0936,-0.0849,-0.061,-0.0383,-0.022,0.0048,0.0139,0.0156,0.0161,0.0169,0.0153,0.0139,0.0149,0.0293,0.0294,0.0294,0.0295,0,0,-0.0987,-0.1017,-0.104,-0.1082,-0.1116,-0.1114,-0.1117,-0.1043,-0.0937,-0.0796,-0.0643,-0.0486,-0.0326,-0.0092,0.0038,0.0183,0.0144,0.0212,0.0006,-0.0014,-0.0029,0.0028,0.0026,0,0,0,0,0]}],[{"header":{"parameterUnit":"m.s-1","parameterCategory":2,"la1":30.2991,"la2":30.254,"lo1":-89.0895,"lo2":-89.0444,"dy":0.0017,"dx":0.0017,"nx":28,"ny":28,"refTime":"2024-11-28T03:00:00:Z","depth":"4","parameterNumber":2,"parameterNumberName":"U-component_of_CURRENTS"},"data":[0,0,0,0,0,0,0,0,0,0,0,0,0,0,0,0,0,0,0,0,0,0,0,0,0,0,0,0,0,0,0,0,0,0,0,0,0,0,0,0,0,0,0,0,0,0,0,0,0,0,0,0,0,0,0,0,0,0,-0.159,-0.1591,0,-0.1627,-0.1627,-0.1627,-0.1635,-0.1635,-0.1635,-0.1635,-0.1643,-0.1643,-0.1643,0,0,0,0,0,0,0,0,0,0,0,0,0,-0.1541,-0.1541,-0.159,-0.1591,-0.1591,-0.1627,-0.1627,-0.1628,-0.1635,-0.1635,-0.1635,-0.1635,-0.1643,-0.1643,-0.1643,0,0,0,0,0,0,0,0,0,0,0,0,0,-0.1566,-0.1541,-0.159,-0.1602,-0.1603,-0.1627,-0.1627,-0.1628,-0.1635,-0.1635,-0.1635,-0.1635,-0.1643,-0.1643,-0.1644,-0.1646,0,0,-0.1645,-0.1645,0,0,0,0,0,0,0,0,-0.1564,-0.1567,-0.1599,-0.1601,-0.1603,-0.1629,-0.1613,-0.1633,-0.1635,-0.162,-0.1635,-0.1635,-0.1637,-0.1638,-0.1642,-0.1647,-0.1647,-0.1645,-0.1645,-0.1645,-0.1645,0,0,0,0,0,0,0,-0.1563,-0.1566,-0.1602,-0.16,-0.1602,-0.161,-0.1613,-0.1617,-0.1626,-0.1622,-0.1623,-0.1631,-0.1638,-0.1641,-0.1642,-0.1647,-0.1645,-0.1645,-0.1645,-0.1645,-0.1775,-0.1778,0,0,0,0,0,0,-0.1563,-0.1564,-0.1601,-0.1603,-0.1586,-0.1611,-0.1615,-0.1618,-0.1627,-0.1629,-0.1631,-0.1632,-0.1641,-0.1642,-0.1642,-0.1686,-0.1645,-0.1645,-0.1645,-0.1772,-0.1776,-0.1779,0,0,0,0,0,0,-0.1561,-0.1565,-0.1599,-0.1587,-0.1592,-0.1612,-0.1616,-0.1619,-0.1655,-0.1635,-0.1636,-0.1668,-0.1641,-0.1642,-0.1653,-0.1684,-0.1645,-0.1646,-0.1768,-0.1773,-0.1778,-0.1747,0,0,0,0,0,0,-0.156,-0.1565,-0.1587,-0.1587,-0.1593,-0.163,-0.1617,-0.162,-0.1659,-0.1661,-0.1666,-0.1665,-0.1641,-0.1653,-0.1654,-0.1684,-0.1646,-0.1764,-0.177,-0.1776,-0.1744,-0.175,-0.1756,0,0,0,0,0,-0.1558,-0.1583,-0.1588,-0.1593,-0.1616,-0.1632,-0.1636,-0.1648,-0.1661,-0.168,-0.1674,-0.1666,-0.1695,-0.1654,-0.1655,-0.1686,-0.1761,-0.1769,-0.1776,-0.1741,-0.1749,-0.1755,0,0,0,0,0,0,-0.1571,-0.1587,-0.1591,-0.162,-0.1634,-0.1634,-0.1663,-0.1673,-0.1686,-0.1697,-0.1675,-0.1673,-0.17,-0.1715,-0.1672,-0.1755,-0.1741,-0.1749,-0.1716,-0.1723,-0.1728,-0.1697,-0.1646,0,0,0,0,0,-0.1585,-0.1609,-0.1618,-0.1643,-0.1656,-0.1669,-0.1687,-0.1695,-0.1699,-0.1708,-0.1707,-0.1724,-0.1729,-0.1741,-0.1749,-0.178,-0.176,-0.182,-0.1826,-0.183,-0.1813,-0.1796,-0.1796,-0.1803,-0.1803,-0.1803,0,0,-0.1596,-0.161,-0.1623,-0.1649,-0.1664,-0.1673,-0.168,-0.1716,-0.1717,-0.1706,-0.1721,-0.1735,-0.1743,-0.1764,-0.1785,-0.178,-0.1825,-0.1839,-0.1841,-0.1822,-0.1803,-0.1801,-0.18,-0.1808,-0.1807,-0.1807,0,0,-0.1614,-0.1645,-0.1666,-0.1683,-0.1716,-0.1712,-0.1732,-0.1751,-0.1759,-0.1775,-0.1768,-0.1783,-0.182,-0.1802,-0.1803,-0.1858,-0.1849,-0.1916,-0.1913,-0.1897,-0.1894,-0.1891,-0.1869,-0.1864,-0.1925,-0.1925,-0.1925,0,-0.1628,-0.1647,-0.1675,-0.1697,-0.171,-0.1731,-0.1744,-0.175,-0.1767,-0.1773,-0.1787,-0.1822,-0.182,-0.1817,-0.1838,-0.1859,-0.1862,-0.1867,-0.1895,-0.1892,-0.1889,-0.1867,-0.1862,-0.1924,-0.1924,-0.1924,-0.1924,0,-0.1642,-0.1673,-0.1692,-0.1711,-0.1731,-0.1753,-0.1758,-0.178,-0.18,-0.1802,-0.1829,-0.1822,-0.1843,-0.1867,-0.1857,-0.1867,-0.1879,-0.1887,-0.1852,-0.1884,-0.1863,-0.1857,-0.1923,-0.1924,-0.1924,-0.1924,0,0,-0.1616,-0.1686,-0.1693,-0.1705,-0.1744,-0.1749,-0.1764,-0.1769,-0.1778,-0.1807,-0.1815,-0.1822,-0.1845,-0.1851,-0.1862,-0.1848,-0.1821,-0.1872,-0.1872,-0.1806,-0.1796,-0.1705,-0.169,-0.1844,-0.1843,-0.1842,-0.1787,0,-0.1612,-0.1647,-0.1686,-0.1704,-0.1713,-0.1748,-0.1752,-0.1768,-0.1787,-0.1802,-0.1809,-0.1823,-0.1833,-0.1854,-0.1842,-0.1835,-0.1809,-0.1835,-0.1814,-0.1813,-0.1689,-0.1681,-0.1839,-0.1783,-0.1782,-0.1781,-0.1781,0,-0.1593,-0.1619,-0.1648,-0.1689,-0.1699,-0.1716,-0.1732,-0.1743,-0.1769,-0.1793,-0.1818,-0.1837,-0.1828,-0.1836,-0.1804,-0.1835,-0.181,-0.1792,-0.179,-0.1703,-0.171,-0.1751,-0.1771,-0.1772,-0.1772,-0.1773,-0.1774,0,-0.152,-0.1582,-0.1601,-0.1618,-0.1671,-0.1693,-0.1713,-0.1745,-0.1749,-0.1789,-0.1805,-0.1821,-0.1823,-0.1808,-0.179,-0.1807,-0.1748,-0.1761,-0.1643,-0.1637,-0.1745,-0.1749,-0.1706,-0.1707,-0.1707,-0.1707,-0.1707,0,-0.1469,-0.1486,-0.1577,-0.1584,-0.1597,-0.1658,-0.1671,-0.17,-0.1741,-0.1734,-0.1797,-0.1784,-0.1818,-0.1802,-0.1786,-0.1696,-0.1742,-0.1617,-0.1606,-0.1741,-0.1745,-0.1741,-0.1745,-0.1705,-0.1705,-0.1706,-0.1706,0,-0.1376,-0.1443,-0.1465,-0.1541,-0.1564,-0.1571,-0.1632,-0.1635,-0.1695,-0.1692,-0.1703,-0.175,-0.1728,-0.1743,-0.1709,-0.1661,-0.1603,-0.1555,-0.1694,-0.1696,-0.1503,-0.1508,-0.1404,-0.14,-0.1397,-0.1394,-0.1392,0,-0.1328,-0.1337,-0.1418,-0.1431,-0.1471,-0.1503,-0.1517,-0.1591,-0.1593,-0.1643,-0.1622,-0.1638,-0.1653,-0.1529,-0.1569,-0.152,-0.1501,-0.1464,-0.1473,-0.1466,-0.1467,-0.1477,-0.1487,-0.1386,-0.1385,-0.1385,-0.1384,0,-0.1228,-0.1277,-0.1297,-0.1327,-0.1355,-0.1369,-0.1403,-0.1392,-0.1462,-0.1531,-0.1488,-0.1474,-0.1446,-0.1439,-0.1415,-0.1382,-0.1491,-0.1429,-0.1436,-0.1444,-0.1444,-0.145,-0.1463,-0.1372,-0.1374,-0.1375,-0.1376,0,-0.1155,-0.1145,-0.1188,-0.1199,-0.1236,-0.1227,-0.1257,-0.1259,-0.1272,-0.1349,-0.1326,-0.1359,-0.1415,-0.1364,-0.1342,-0.1309,-0.1285,-0.1243,-0.1259,-0.1272,-0.1258,-0.1241,-0.107,0,0,0,0,0,-0.1071,-0.105,-0.1055,-0.1061,-0.1099,-0.1119,-0.1175,-0.1215,-0.1289,-0.1216,-0.1269,-0.124,-0.1209,-0.1236,-0.1172,-0.1282,-0.1295,-0.1203,-0.1257,-0.1308,-0.1321,-0.1319,0,0,0,0,0,0,-0.1013,-0.1012,-0.1009,-0.0952,-0.0939,-0.0957,-0.0993,-0.1046,-0.1018,-0.1104,-0.1093,-0.1159,-0.115,-0.1219,-0.1142,-0.1149,-0.1156,-0.1236,-0.1232,-0.1301,-0.1313,-0.1323,-0.1326,0,0,0,0,0]},{"header":{"parameterUnit":"m.s-1","parameterCategory":2,"la1":30.2991,"la2":30.254,"lo1":-89.0895,"lo2":-89.0444,"dy":0.0017,"dx":0.0017,"nx":28,"ny":28,"refTime":"2024-11-28T03:00:00:Z","depth":"4","parameterNumber":3,"parameterNumberName":"V-component_of_CURRENTS"},"data":[0,0,0,0,0,0,0,0,0,0,0,0,0,0,0,0,0,0,0,0,0,0,0,0,0,0,0,0,0,0,0,0,0,0,0,0,0,0,0,0,0,0,0,0,0,0,0,0,0,0,0,0,0,0,0,0,0,0,-0.0213,-0.0213,0,-0.0204,-0.0204,-0.0204,-0.0172,-0.0172,-0.0171,-0.017,-0.0112,-0.0111,-0.011,0,0,0,0,0,0,0,0,0,0,0,0,0,-0.0218,-0.0218,-0.0213,-0.0213,-0.0212,-0.0204,-0.0204,-0.0204,-0.0173,-0.0172,-0.0171,-0.017,-0.0112,-0.0111,-0.011,0,0,0,0,0,0,0,0,0,0,0,0,0,-0.0213,-0.0218,-0.0213,-0.0196,-0.0194,-0.0204,-0.0204,-0.0204,-0.0173,-0.0172,-0.0171,-0.017,-0.0113,-0.0112,-0.011,-0.0124,0,0,-0.0106,-0.0106,0,0,0,0,0,0,0,0,-0.0214,-0.0213,-0.0198,-0.0197,-0.0195,-0.0188,-0.0185,-0.0175,-0.0173,-0.0181,-0.017,-0.0169,-0.0134,-0.0131,-0.0132,-0.0122,-0.0119,-0.0106,-0.0105,-0.0105,-0.0105,0,0,0,0,0,0,0,-0.0214,-0.0214,-0.0209,-0.0198,-0.0196,-0.0194,-0.0192,-0.0183,-0.0163,-0.018,-0.0178,-0.0177,-0.0132,-0.0134,-0.0131,-0.0118,-0.0106,-0.0105,-0.0104,-0.0104,-0.0119,-0.012,0,0,0,0,0,0,-0.0215,-0.0214,-0.021,-0.0209,-0.0202,-0.0195,-0.0192,-0.0192,-0.0164,-0.0159,-0.0178,-0.0176,-0.0137,-0.0132,-0.0128,-0.0141,-0.0105,-0.0104,-0.0103,-0.0118,-0.0119,-0.012,0,0,0,0,0,0,-0.0215,-0.0215,-0.021,-0.0211,-0.021,-0.0196,-0.0195,-0.0192,-0.0196,-0.0163,-0.0157,-0.0185,-0.0136,-0.013,-0.0127,-0.0138,-0.0103,-0.0102,-0.0116,-0.0118,-0.012,-0.0167,0,0,0,0,0,0,-0.0215,-0.0215,-0.0224,-0.0211,-0.021,-0.0223,-0.0196,-0.0193,-0.0197,-0.0194,-0.0167,-0.016,-0.0134,-0.0129,-0.0125,-0.0136,-0.0101,-0.0115,-0.0117,-0.0119,-0.0164,-0.017,-0.0176,0,0,0,0,0,-0.0216,-0.0233,-0.0225,-0.0225,-0.022,-0.0224,-0.0224,-0.021,-0.0199,-0.0208,-0.0189,-0.0161,-0.014,-0.0129,-0.0125,-0.0135,-0.0114,-0.0116,-0.0119,-0.0161,-0.0169,-0.0175,0,0,0,0,0,0,-0.0242,-0.0231,-0.0222,-0.0235,-0.0232,-0.0219,-0.023,-0.022,-0.0214,-0.021,-0.0176,-0.0169,-0.017,-0.0153,-0.0141,-0.0148,-0.0123,-0.0125,-0.0157,-0.0164,-0.0169,-0.0158,-0.01,0,0,0,0,0,-0.0253,-0.0261,-0.0248,-0.0261,-0.0261,-0.0249,-0.0251,-0.024,-0.023,-0.0227,-0.0207,-0.019,-0.0179,-0.0171,-0.016,-0.0165,-0.0124,-0.0171,-0.0177,-0.0181,-0.0171,-0.0133,-0.0133,-0.0129,-0.0129,-0.0129,0,0,-0.0266,-0.0262,-0.0267,-0.0267,-0.0264,-0.0273,-0.0248,-0.0256,-0.026,-0.0222,-0.0227,-0.021,-0.0187,-0.0189,-0.0188,-0.0174,-0.0161,-0.0185,-0.0189,-0.0175,-0.0135,-0.0135,-0.0135,-0.0131,-0.0131,-0.013,0,0,-0.0298,-0.0295,-0.0312,-0.0313,-0.0312,-0.0301,-0.0306,-0.0297,-0.0291,-0.0296,-0.0268,-0.0257,-0.0248,-0.0227,-0.0216,-0.025,-0.0195,-0.0253,-0.0269,-0.0232,-0.0232,-0.023,-0.0174,-0.0167,-0.0254,-0.0254,-0.0254,0,-0.0315,-0.0331,-0.0319,-0.0336,-0.034,-0.0316,-0.0334,-0.0329,-0.0319,-0.0312,-0.0304,-0.028,-0.0263,-0.025,-0.0261,-0.026,-0.0222,-0.0242,-0.0237,-0.0236,-0.0233,-0.0175,-0.0167,-0.0257,-0.0257,-0.0256,-0.0256,0,-0.0355,-0.037,-0.0382,-0.0389,-0.0395,-0.0407,-0.0393,-0.0393,-0.0381,-0.0367,-0.0357,-0.0331,-0.0312,-0.0312,-0.0295,-0.0279,-0.025,-0.0249,-0.0215,-0.0236,-0.0174,-0.0165,-0.0261,-0.026,-0.0259,-0.0258,0,0,-0.0377,-0.0404,-0.0408,-0.042,-0.0423,-0.0428,-0.0436,-0.0429,-0.0424,-0.0411,-0.0402,-0.0386,-0.0362,-0.0348,-0.0325,-0.0292,-0.0249,-0.0267,-0.0263,-0.02,-0.0148,-0.0167,-0.0158,-0.0245,-0.0244,-0.0243,-0.0108,0,-0.0409,-0.0451,-0.0453,-0.0486,-0.0502,-0.0486,-0.0492,-0.0482,-0.0464,-0.0449,-0.0413,-0.0398,-0.038,-0.0368,-0.0335,-0.0274,-0.0228,-0.0284,-0.0144,-0.0139,-0.0146,-0.0149,-0.024,-0.01,-0.0098,-0.0097,-0.0095,0,-0.044,-0.0462,-0.0506,-0.0525,-0.053,-0.0546,-0.0538,-0.0542,-0.0511,-0.0495,-0.0466,-0.0432,-0.0387,-0.037,-0.0259,-0.0296,-0.0223,-0.0168,-0.0162,-0.0153,-0.0142,-0.0076,-0.0078,-0.0079,-0.0081,-0.0082,-0.0083,0,-0.0452,-0.0494,-0.0529,-0.0539,-0.0559,-0.0572,-0.0578,-0.0558,-0.0552,-0.052,-0.0502,-0.0446,-0.0412,-0.0326,-0.0228,-0.0236,-0.0095,-0.0093,-0.003,-0.0029,-0.0028,-0.0031,0.0002,0.0001,0.0001,0.0001,0.0,0,-0.0474,-0.0501,-0.0542,-0.056,-0.0591,-0.0598,-0.0615,-0.0606,-0.0586,-0.0573,-0.0529,-0.0496,-0.0399,-0.0313,-0.0222,-0.0103,-0.0089,-0.0021,0.0001,-0.0052,-0.0059,-0.0021,-0.0025,0.0006,0.0005,0.0004,0.0003,0,-0.0475,-0.0507,-0.0547,-0.0586,-0.0601,-0.0623,-0.0645,-0.0646,-0.0627,-0.0605,-0.0594,-0.0519,-0.0419,-0.031,-0.0162,-0.0096,0.002,0.0064,0.0014,0.003,0.0071,0.0062,0.0159,0.0159,0.0159,0.016,0.016,0,-0.0477,-0.0501,-0.0564,-0.0591,-0.0614,-0.0648,-0.0666,-0.0667,-0.0661,-0.0614,-0.0597,-0.0506,-0.0448,-0.0245,-0.0146,0.003,0.0048,0.0125,0.0087,0.0073,0.0086,0.0076,0.0068,0.016,0.0161,0.0161,0.0161,0,-0.0472,-0.0502,-0.0537,-0.0592,-0.0631,-0.0665,-0.069,-0.0684,-0.0672,-0.0658,-0.0581,-0.0484,-0.0372,-0.0243,-0.0114,0.0009,0.0077,0.0129,0.0129,0.0094,0.0076,0.0086,0.0077,0.0162,0.0162,0.0162,0.0162,0,-0.0462,-0.0487,-0.0537,-0.0581,-0.0634,-0.0663,-0.0681,-0.0669,-0.0661,-0.0608,-0.0585,-0.0473,-0.0411,-0.0251,-0.0134,-0.0025,0.0006,0.0055,0.006,0.006,-0.003,-0.007,-0.0001,0,0,0,0,0,-0.0442,-0.047,-0.0516,-0.0572,-0.0626,-0.0651,-0.0682,-0.069,-0.068,-0.0625,-0.0602,-0.05,-0.0331,-0.0263,-0.0155,-0.0132,0.0019,-0.0001,0.0076,0.0168,0.0167,0.0074,0,0,0,0,0,0,-0.043,-0.0475,-0.0505,-0.0553,-0.0584,-0.0635,-0.0656,-0.0654,-0.0619,-0.0598,-0.0514,-0.0465,-0.0312,-0.0393,-0.0151,-0.012,-0.0053,0.0073,0.0076,0.0169,0.0168,0.0167,0.007,0,0,0,0,0]}]]